Showing default

COSMOS 1833, 17589

Orbit data source: Space-Track

COSMOS 1833, 17589 is a payload satellite owned by GRU (CIS) in LEO that was launched on Wed, 18 Mar 1987 UTC via a ZENIT-2 launch vehicle from the Tyuratam Missile And Space Complex (TTMTR). Payload-class satellites include a variety of spacecraft equipped with specific instruments for various scientific and technological missions. These include communications satellites like Starlink; space stations such as the ISS; scientific satellites like the Hubble; Earth observation satellites from companies like Planet Labs, Umbra, and HawkEye 360; GPS; miniature CubeSats for education and research; and military/defense satellites.

Loading next visibility...
Identifier
17589, 1987-027A
Orbit
LEO
Country
Flag of CISCIS
Related business
Manufacturer
Yuzhnoe
Mission
Defense Sigint
Bus & Motor
TSELINA-2, Unknown motor
Mass
3,250 kg wet, 3,250 kg dry
Launch date (UTC)
1987-03-18 (39 years ago)
Launch vehicle
ZENIT-2
Launch site
Tyuratam Missile And Space Complex (TTMTR)
Object type
Payload
Rocket body
Debris
Shape & HBR
Cyl + 2 Pan + 1 Ant, 11.3 m
Radar Cross Section
16.265 m², Large (>1 m²)

Expand to show TLE details & history
Last TLE update: 8 hours ago

TLE from 8 hours ago
0 COSMOS 1833
1 17589U 87027A   25304.24305834 -.00000311  00000-0 -14057-3 0  9994
2 17589  70.9164 238.1089 0020562  32.1237 328.1132 14.13025236992022
Epoch: 2025-10-31T05:50Z
TLE epoch observation values (Epoch: 2025-10-31T05:50:00.240Z)
Latitude
-0.00004°
Longitude
110.8176°
Altitude
838.819 km
Speed
7.44 km/s
True Right ascension
15h 52m 26s
True Declination
0° 00' 00"
Sunlit
Object was in daylight at epoch
Visualization orbit readout
Latitude
Unknown
Longitude
Unknown
Altitude
Unknown
Speed
Unknown
Apparent Right ascension
Unknown
Apparent Declination
Unknown
Sunlit
N/A
Visualization observer readout
Local Sidereal Time
09:09:31
Azimuth
Unknown
Elevation
Unknown
Doppler factor
Unknown
Orbital elements
Apogee altitude
861.829 km
Perigee altitude
832.117 km
Semi-major axis
7,225.11 km
Eccentricity
0.00206
Inclination
70.9164°
RAAN
238.1089°
Arg. of periapsis
32.1237°
True anomaly
327.98846°
Mean anomaly
328.1132°
Eccentric anomaly
328.05086°
Mean motion
3.53408 °/min
Orbital period
101.87 mins
BSTAR
-0.00014057
Loading maneuver chart data...
Computing Atmospheric mass density...
Loading historical data...
Loading historical data...
Loading historical data...
Loading historical data...
Loading historical data...
Loading historical data...
Loading historical data...

Documentation

Showing up to 5 results
|